• In Österreich
  • Länderverzeichnis
  • Für 7 Tage
  • Wassertemperatur
  • Satellitenkarten
  • Wetterkarte
  • News
  • Widgets
  • user-avatar
    Anmelden

    Stündliche Wetter Russe

    Heute, 20 Oktober, Samstag

    Zeit Temperatur Niederschläge Wind Luftdruck Luftfeuchtigkeit
    00:00 +16°C° 0 mm 1 m/S 757 mmHg 72%
    01:00 +16°C° 0 mm 1 m/S 757 mmHg 74%
    02:00 +16°C° 0 mm 1 m/S 757 mmHg 74%
    03:00 +16°C° 0.1 mm 1 m/S 757 mmHg 76%
    04:00 +15°C° 0.1 mm 1 m/S 758 mmHg 78%
    05:00 +15°C° 0.1 mm 1 m/S 758 mmHg 80%
    06:00 +15°C° 0.1 mm 1 m/S 758 mmHg 78%
    07:00 +16°C° 0.1 mm 1 m/S 758 mmHg 77%
    08:00 +16°C° 0.1 mm 1 m/S 758 mmHg 75%
    09:00 +18°C° 0.1 mm 1 m/S 758 mmHg 71%
    10:00 +19°C° 0.1 mm 1 m/S 758 mmHg 66%
    11:00 +19°C° 0.1 mm 2 m/S 758 mmHg 62%
    12:00 +20°C° 0.1 mm 2 m/S 758 mmHg 59%
    13:00 +20°C° 0.1 mm 2 m/S 758 mmHg 56%
    14:00 +21°C° 0.1 mm 2 m/S 758 mmHg 54%
    15:00 +21°C° 0.1 mm 1 m/S 758 mmHg 56%
    16:00 +21°C° 0.1 mm 1 m/S 758 mmHg 58%
    17:00 +20°C° 0.1 mm 1 m/S 758 mmHg 59%
    18:00 +19°C° 0.3 mm 1 m/S 758 mmHg 64%
    19:00 +18°C° 0.3 mm 1 m/S 758 mmHg 68%
    20:00 +16°C° 0.3 mm 1 m/S 758 mmHg 72%
    21:00 +16°C° 0.1 mm 1 m/S 758 mmHg 72%
    22:00 +16°C° 0.1 mm 1 m/S 758 mmHg 73%
    23:00 +16°C° 0.1 mm 1 m/S 758 mmHg 73%

    Morgen, 21 Oktober, Sonntag

    Zeit Temperatur Niederschläge Wind Luftdruck Luftfeuchtigkeit
    00:00 +15°C° 0 mm 1 m/S 758 mmHg 74%
    01:00 +15°C° 0 mm 1 m/S 758 mmHg 75%
    02:00 +15°C° 0 mm 1 m/S 758 mmHg 76%
    03:00 +14°C° 0 mm 1 m/S 758 mmHg 77%
    04:00 +14°C° 0 mm 1 m/S 758 mmHg 78%
    05:00 +14°C° 0 mm 1 m/S 758 mmHg 79%
    06:00 +14°C° 0 mm 1 m/S 758 mmHg 77%
    07:00 +15°C° 0 mm 1 m/S 758 mmHg 75%
    08:00 +15°C° 0 mm 1 m/S 758 mmHg 73%
    09:00 +16°C° 0 mm 1 m/S 758 mmHg 67%
    10:00 +19°C° 0 mm 1 m/S 758 mmHg 62%
    11:00 +19°C° 0 mm 2 m/S 758 mmHg 56%
    12:00 +19°C° 0 mm 2 m/S 758 mmHg 55%
    13:00 +20°C° 0 mm 2 m/S 758 mmHg 54%
    14:00 +20°C° 0 mm 2 m/S 758 mmHg 53%
    15:00 +19°C° 0.1 mm 2 m/S 758 mmHg 56%
    16:00 +19°C° 0.1 mm 2 m/S 758 mmHg 58%
    17:00 +19°C° 0.1 mm 1 m/S 758 mmHg 61%
    18:00 +19°C° 0.3 mm 1 m/S 758 mmHg 65%
    19:00 +18°C° 0.3 mm 1 m/S 758 mmHg 69%
    20:00 +16°C° 0.3 mm 1 m/S 759 mmHg 72%
    21:00 +16°C° 0.3 mm 1 m/S 759 mmHg 74%
    22:00 +16°C° 0.3 mm 1 m/S 759 mmHg 76%
    23:00 +16°C° 0.3 mm 1 m/S 759 mmHg 77%

    übermorgen, 22 Oktober, Montag

    Zeit Temperatur Niederschläge Wind Luftdruck Luftfeuchtigkeit
    00:00 +15°C° 0.1 mm 1 m/S 759 mmHg 78%
    01:00 +15°C° 0.1 mm 1 m/S 759 mmHg 78%
    02:00 +15°C° 0.1 mm 1 m/S 759 mmHg 79%
    03:00 +14°C° 0 mm 1 m/S 759 mmHg 79%
    04:00 +14°C° 0 mm 2 m/S 759 mmHg 78%
    05:00 +14°C° 0 mm 2 m/S 759 mmHg 78%
    06:00 +14°C° 0 mm 2 m/S 760 mmHg 77%
    07:00 +14°C° 0 mm 2 m/S 760 mmHg 76%
    08:00 +13°C° 0 mm 3 m/S 760 mmHg 75%
    09:00 +14°C° 0 mm 3 m/S 760 mmHg 69%
    10:00 +17°C° 0 mm 3 m/S 760 mmHg 63%
    11:00 +18°C° 0 mm 3 m/S 760 mmHg 58%
    12:00 +19°C° 0 mm 3 m/S 759 mmHg 55%
    13:00 +19°C° 0 mm 3 m/S 759 mmHg 52%
    14:00 +20°C° 0 mm 3 m/S 758 mmHg 49%
    15:00 +19°C° 0 mm 3 m/S 758 mmHg 50%
    16:00 +18°C° 0 mm 3 m/S 758 mmHg 52%
    17:00 +18°C° 0 mm 2 m/S 758 mmHg 54%
    18:00 +17°C° 0 mm 2 m/S 758 mmHg 57%
    19:00 +16°C° 0 mm 2 m/S 758 mmHg 59%
    20:00 +15°C° 0 mm 2 m/S 758 mmHg 62%
    21:00 +14°C° 0 mm 2 m/S 758 mmHg 63%
    22:00 +14°C° 0 mm 2 m/S 759 mmHg 65%
    23:00 +14°C° 0 mm 1 m/S 759 mmHg 66%

    23 Oktober, Dienstag

    Zeit Temperatur Niederschläge Wind Luftdruck Luftfeuchtigkeit
    00:00 +13°C° 0 mm 1 m/S 759 mmHg 67%
    01:00 +13°C° 0 mm 1 m/S 759 mmHg 68%
    02:00 +12°C° 0 mm 1 m/S 759 mmHg 70%
    03:00 +12°C° 0 mm 1 m/S 758 mmHg 70%
    04:00 +12°C° 0 mm 1 m/S 758 mmHg 71%
    05:00 +12°C° 0 mm 1 m/S 758 mmHg 72%
    06:00 +12°C° 0 mm 1 m/S 758 mmHg 70%
    07:00 +12°C° 0 mm 1 m/S 758 mmHg 68%
    08:00 +13°C° 0 mm 1 m/S 758 mmHg 67%
    09:00 +14°C° 0 mm 1 m/S 758 mmHg 62%
    10:00 +16°C° 0 mm 1 m/S 758 mmHg 57%
    11:00 +17°C° 0 mm 2 m/S 758 mmHg 52%
    12:00 +19°C° 0 mm 1 m/S 757 mmHg 50%
    13:00 +19°C° 0 mm 1 m/S 757 mmHg 48%
    14:00 +20°C° 0 mm 1 m/S 756 mmHg 46%
    15:00 +19°C° 0 mm 1 m/S 756 mmHg 48%
    16:00 +19°C° 0 mm 1 m/S 756 mmHg 51%
    17:00 +18°C° 0 mm 1 m/S 756 mmHg 53%
    18:00 +16°C° 0 mm 1 m/S 756 mmHg 55%
    19:00 +14°C° 0 mm 0 m/S 756 mmHg 58%
    20:00 +13°C° 0 mm 0 m/S 756 mmHg 61%
    21:00 +13°C° 0 mm 0 m/S 755 mmHg 63%
    22:00 +14°C° 0 mm 1 m/S 755 mmHg 65%
    23:00 +13°C° 0 mm 1 m/S 755 mmHg 66%

    24 Oktober, Mittwoch

    Zeit Temperatur Niederschläge Wind Luftdruck Luftfeuchtigkeit
    00:00 +13°C° 0 mm 1 m/S 754 mmHg 68%
    01:00 +13°C° 0 mm 1 m/S 754 mmHg 71%
    02:00 +12°C° 0 mm 2 m/S 753 mmHg 73%
    03:00 +12°C° 0 mm 2 m/S 753 mmHg 74%
    04:00 +10°C° 0 mm 2 m/S 752 mmHg 76%
    05:00 +10°C° 0 mm 3 m/S 752 mmHg 77%
    06:00 +10°C° 0 mm 3 m/S 752 mmHg 74%
    07:00 +10°C° 0 mm 4 m/S 751 mmHg 71%
    08:00 +10°C° 0 mm 5 m/S 751 mmHg 68%
    09:00 +11°C° 0 mm 6 m/S 750 mmHg 58%
    10:00 +14°C° 0 mm 6 m/S 749 mmHg 48%
    11:00 +15°C° 0 mm 7 m/S 749 mmHg 39%
    12:00 +16°C° 0 mm 8 m/S 748 mmHg 39%
    13:00 +16°C° 0 mm 8 m/S 747 mmHg 39%
    14:00 +16°C° 0 mm 9 m/S 747 mmHg 39%
    15:00 +16°C° 0 mm 9 m/S 746 mmHg 42%
    16:00 +15°C° 0 mm 9 m/S 746 mmHg 45%
    17:00 +13°C° 0 mm 9 m/S 746 mmHg 47%
    18:00 +12°C° 0 mm 8 m/S 746 mmHg 49%
    19:00 +12°C° 0 mm 8 m/S 746 mmHg 52%
    20:00 +11°C° 0 mm 8 m/S 746 mmHg 54%
    21:00 +11°C° 0 mm 8 m/S 747 mmHg 51%
    22:00 +10°C° 0 mm 8 m/S 747 mmHg 48%
    23:00 +10°C° 0 mm 8 m/S 747 mmHg 46%

    25 Oktober, Donnerstag

    Zeit Temperatur Niederschläge Wind Luftdruck Luftfeuchtigkeit
    00:00 +9°C° 0 mm 7 m/S 748 mmHg 44%
    01:00 +8°C° 0 mm 7 m/S 749 mmHg 42%
    02:00 +7°C° 0 mm 6 m/S 749 mmHg 40%
    03:00 +5°C° 0 mm 6 m/S 750 mmHg 41%
    04:00 +5°C° 0 mm 6 m/S 750 mmHg 42%
    05:00 +5°C° 0 mm 5 m/S 751 mmHg 43%
    06:00 +4°C° 0 mm 6 m/S 752 mmHg 43%
    07:00 +4°C° 0 mm 6 m/S 752 mmHg 43%
    08:00 +4°C° 0 mm 6 m/S 753 mmHg 43%
    09:00 +5°C° 0 mm 6 m/S 753 mmHg 39%
    10:00 +8°C° 0 mm 7 m/S 753 mmHg 35%
    11:00 +9°C° 0 mm 7 m/S 753 mmHg 31%
    12:00 +10°C° 0 mm 7 m/S 753 mmHg 30%
    13:00 +10°C° 0 mm 7 m/S 753 mmHg 28%
    14:00 +11°C° 0 mm 7 m/S 753 mmHg 26%
    15:00 +10°C° 0 mm 6 m/S 754 mmHg 28%
    16:00 +10°C° 0 mm 5 m/S 754 mmHg 29%
    17:00 +10°C° 0 mm 4 m/S 754 mmHg 31%
    18:00 +10°C° 0 mm 4 m/S 755 mmHg 35%
    19:00 +8°C° 0 mm 4 m/S 755 mmHg 40%
    20:00 +7°C° 0 mm 4 m/S 756 mmHg 44%
    21:00 +7°C° 0 mm 4 m/S 756 mmHg 50%
    22:00 +7°C° 0 mm 4 m/S 756 mmHg 57%
    23:00 +6°C° 0 mm 4 m/S 757 mmHg 63%
    Mehr zeigen